Simultaneous Nadir Overpasses (SNOs) Predictions

Prediction of SNOs between GOES-17 and METOP-B Satellite Orbit:

Table of predicted SNOs for the next 14.0 days since TLE Epoch: 6/11/2022
Index Date Time (GOES-17) GOES-17 Lat,Lon METOP-B Lat,Lon Distance(km) Time Diff (sec)
1 06/11/2022 06:41:19 -0.05,-137.19 -0.25,-138.10 103.07 80
2 06/12/2022 06:23:19 -0.05,-137.19 0.84,-133.10 466.07 80
3 06/13/2022 18:39:32 0.05,-137.19 0.14,-137.67 53.77 80
4 06/16/2022 06:37:54 -0.04,-137.18 -0.06,-137.27 11.16 80
5 06/18/2022 18:38:46 0.03,-137.16 -0.06,-136.85 36.02 80
6 06/20/2022 06:55:07 -0.03,-137.14 -1.00,-141.44 489.95 80
7 06/21/2022 06:37:07 -0.03,-137.13 0.10,-136.44 78.13 80
8 06/22/2022 18:53:19 0.03,-137.12 0.89,-141.01 443.21 80
9 06/23/2022 18:35:20 0.03,-137.11 -0.21,-136.01 124.63 80
